Skagway, AK

5:47 PM AKST on February 07, 2016 (GMT -0900)
Skagway

Weather History for PAGY - January, 2014

Change the Weather History Date:

Wednesday, January 8, 2014

  Actual Average Record
Temperature  
Mean Temperature 34 °F -  
Max Temperature 36 °F 27 °F 43 °F (2001)
Min Temperature 32 °F 20 °F -9 °F (2009)
Degree Days  
Heating Degree Days 31    
Moisture  
Dew Point 32 °F    
Average Humidity 92    
Maximum Humidity 100    
Minimum Humidity 79    
Precipitation  
Precipitation 0.00 in - - ()
Sea Level Pressure  
Sea Level Pressure 29.44 in    
Wind  
Wind Speed 0 mph (North)    
Max Wind Speed 5 mph    
Max Gust Speed -    
Visibility 7 miles    
Events Snow    
Averages and records for this station are not official NWS values.
T = Trace of Precipitation, MM = Missing Value Source: NWS Daily Summary

Daily Weather History Graph

Daily Weather History Graph

Search for Another Location

Airport or City:

Trip Planner

Search our weather history database for the weather conditions in past years. The results will help you decide how hot, cold, wet, or windy it might be!

Date:

Astronomy

Jan. 08, 2014 Rise Set
Actual Time 8:53 AM AKST 3:23 PM AKST
Civil Twilight 7:59 AM AKST 4:16 PM AKST
Nautical Twilight 7:05 AM AKST 5:10 PM AKST
Astronomical Twilight 6:15 AM AKST 6:00 PM AKST
Moon 11:10 AM AKST 1:11 AM AKST
Length of Visible Light 8h 16m
Length of Day
6h 30m
First Quarter, 57% of the Moon is Illuminated
Jan 8
First Quarter
Jan 15
Full
Jan 23
Last Quarter
Jan 30
New
Feb 6
First Quarter

Hourly Weather History & Observations

Time (AKST) Temp. Windchill Dew Point Humidity Pressure Visibility Wind Dir Wind Speed Gust Speed Precip Events Conditions
12:05 AM 32.0 °F - 30.2 °F 93% 29.63 in 4.0 mi Calm Calm - N/A   Overcast
12:18 AM 33.8 °F - 30.2 °F 87% 29.62 in 4.0 mi Calm Calm - N/A   Overcast
12:43 AM 33.8 °F - 30.2 °F 87% 29.61 in 5.0 mi Calm Calm - N/A   Overcast
12:53 AM 33.1 °F - 30.9 °F 92% 29.62 in 5.0 mi Calm Calm - N/A   Overcast
1:53 AM 32.0 °F - 30.9 °F 96% 29.61 in 4.0 mi Calm Calm - N/A   Overcast
3:53 AM 33.1 °F 30.0 °F 30.9 °F 92% 29.57 in 5.0 mi NE 3.5 mph - N/A   Overcast
4:30 AM 33.8 °F - 32.0 °F 93% 29.56 in 2.0 mi Calm Calm - N/A   Overcast
4:53 AM 33.1 °F - 32.0 °F 96% 29.55 in 2.0 mi Calm Calm - N/A   Overcast
5:06 AM 33.8 °F - 32.0 °F 93% 29.53 in 1.2 mi Calm Calm - N/A   Overcast
5:53 AM 33.1 °F - 30.9 °F 92% 29.52 in 1.0 mi Calm Calm - N/A   Mist
6:17 AM 33.8 °F - 32.0 °F 93% 29.50 in 1.0 mi Calm Calm - N/A   Mist
6:34 AM 33.8 °F - 32.0 °F 93% 29.51 in 2.0 mi Calm Calm - N/A   Overcast
6:41 AM 33.8 °F - 33.8 °F 100% 29.50 in 9.0 mi Calm Calm - N/A   Overcast
6:53 AM 33.1 °F - 32.0 °F 96% 29.50 in 2.5 mi Calm Calm - N/A   Overcast
6:59 AM 33.8 °F - 32.0 °F 93% 29.50 in 1.5 mi Calm Calm - N/A   Overcast
7:15 AM 33.8 °F 30.8 °F 30.2 °F 87% 29.50 in 3.0 mi NNE 3.5 mph - N/A   Overcast
7:31 AM 33.8 °F - 30.2 °F 87% 29.49 in 10.0 mi Calm Calm - N/A   Overcast
7:53 AM 33.1 °F - 30.9 °F 92% 29.47 in 7.0 mi Calm Calm - N/A   Overcast
8:06 AM 33.8 °F - 30.2 °F 87% 29.48 in 6.0 mi Calm Calm - N/A   Overcast
8:21 AM 33.8 °F - 30.2 °F 87% 29.48 in 8.0 mi Calm Calm - N/A   Overcast
8:28 AM 33.8 °F - 32.0 °F 93% 29.48 in 10.0 mi Calm Calm - N/A   Overcast
8:37 AM 33.8 °F - 32.0 °F 93% 29.47 in 10.0 mi Calm Calm - N/A   Overcast
8:53 AM 33.1 °F - 32.0 °F 96% 29.47 in 10.0 mi Calm Calm - N/A   Overcast
9:53 AM 33.1 °F - 32.0 °F 96% 29.45 in 10.0 mi Calm Calm - N/A   Overcast
10:53 AM 33.1 °F - 32.0 °F 96% 29.43 in 8.0 mi Calm Calm - N/A   Overcast
11:53 AM 34.0 °F - 32.0 °F 92% 29.41 in 10.0 mi Calm Calm - N/A   Overcast
12:53 PM 34.0 °F - 33.1 °F 96% 29.38 in 9.0 mi Calm Calm - N/A   Overcast
1:53 PM 34.0 °F - 32.0 °F 92% 29.35 in 10.0 mi Calm Calm - N/A   Overcast
2:53 PM 34.0 °F - 33.1 °F 96% 29.34 in 10.0 mi Calm Calm - N/A   Overcast
3:53 PM 33.1 °F - 32.0 °F 96% 29.33 in 10.0 mi Calm Calm - N/A   Overcast
4:53 PM 33.1 °F - 32.0 °F 96% 29.31 in 10.0 mi Calm Calm - N/A   Overcast
5:53 PM 33.1 °F - 32.0 °F 96% 29.28 in 7.0 mi Calm Calm - N/A   Overcast
6:53 PM 33.1 °F - 32.0 °F 96% 29.26 in 8.0 mi Calm Calm - N/A   Overcast
7:53 PM 34.0 °F - 33.1 °F 96% 29.25 in 10.0 mi Calm Calm - 0.00 in   Overcast
8:53 PM 36.0 °F 32.1 °F 32.0 °F 86% 29.24 in 10.0 mi Variable 4.6 mph - N/A   Overcast
9:53 PM 36.0 °F 33.3 °F 32.0 °F 86% 29.23 in 10.0 mi Variable 3.5 mph - N/A   Overcast
10:53 PM 36.0 °F 32.1 °F 30.0 °F 79% 29.21 in 10.0 mi North 4.6 mph - N/A   Overcast
11:26 PM 35.6 °F 31.7 °F 30.2 °F 81% 29.21 in 8.0 mi Variable 4.6 mph - 0.00 in Snow Light Snow
11:53 PM 35.1 °F 32.2 °F 30.9 °F 85% 29.21 in 10.0 mi WNW 3.5 mph - 0.00 in   Overcast